Flag for U.S.A. Weather past 2 weeks in Inverness, Florida, U.S.A.

Now
82 °F

Warm.


Feels Like: 84 °F
Forecast: 61 / 83 °F
Wind: 8 mph from Southeast

Location: The Villages


UV Index: 7 (High)

Visibility: 10 mi


Pressure: 30.00 "Hg

Humidity: 55%

Dew point: 64 °F

Location of InvernessLocation

Historic Weather in Inverness

°F

Inverness temperature yesterday

Maximum temperature yesterday: 84 °F (at 4:55 PM)
Minimum temperature yesterday: 57 °F (at 5:55 AM)
Average temperature yesterday: 70 °F

Past Weeks' High & Low Weather Summary

 TemperatureHumidityPressure
High88 °F (Apr 14, 3:15 PM)100% (Apr 10, 2:35 AM)30.31 "Hg (Apr 10, 2:35 AM)
Low46 °F (Apr 16, 5:55 AM)34% (Apr 10, 3:35 PM)29.79 "Hg (Apr 15, 3:55 PM)
Average68 °F77%30.06 "Hg
* Reported Apr 9 12:15 PM — Apr 24 12:15 PM, Inverness, Weather by CustomWeather, © 2014

Note: Actual official high and low records may vary slightly from our data, if they occured in-between our weather recording intervals... More about our weather records

Advertising

Historic Weather Conditions — Data for Previous 24 hours

 ConditionsComfort  
Time TempWeatherWind HumidityBarometerVisibility
12:15 PM
Apr 24
81 °FWarm.No wind58%30.02 "Hg10 mi
11:55 AM79 °FWarm.5 mph61%30.03 "Hg10 mi
11:35 AM79 °FWarm.5 mph61%30.03 "Hg10 mi
11:15 AM75 °FMild.No wind69%30.04 "Hg10 mi
10:55 AM75 °FMild.No wind69%30.04 "Hg10 mi
10:35 AM73 °FMild.No wind74%30.04 "Hg10 mi
10:15 AM72 °FMild.No wind78%30.03 "Hg10 mi
9:35 AM68 °FMild.No wind94%30.03 "Hg7 mi
9:15 AM66 °FMild.No wind100%30.02 "Hg7 mi
8:55 AM64 °FFog.No wind100%30.02 "Hg5 mi
8:15 AM64 °FFog.No wind100%30.01 "Hg3 mi
7:55 AM64 °FFog.No wind100%30.01 "Hg1 mi
7:35 AM64 °FFog.3 mph100%30.00 "Hg1 mi
7:15 AM64 °FFog.No wind100%29.99 "Hg0 mi
6:55 AM64 °FFog.No wind100%29.97 "Hg0 mi
6:35 AM64 °FFog.No wind100%29.97 "Hg0 mi
6:15 AM64 °FFog.No wind100%29.97 "Hg0 mi
5:55 AM63 °FFog.No wind100%29.96 "Hg3 mi
5:35 AM63 °FFog.No wind100%29.96 "Hg2 mi
5:15 AM61 °FFog.No wind100%29.95 "Hg1 mi
4:55 AM63 °FFog.No wind100%29.95 "Hg4 mi
4:15 AM63 °FFog.No wind100%29.95 "Hg1 mi
3:55 AM63 °FFog.No wind100%29.95 "Hg1 mi
3:15 AM63 °FFog.No wind100%29.95 "Hg4 mi
2:55 AM64 °FFog.No wind100%29.95 "Hg1 mi
2:35 AM64 °FFog.No wind100%29.95 "Hg3 mi
2:15 AM64 °FFog.No wind100%29.96 "Hg3 mi
1:55 AM64 °FFog.No wind100%29.96 "Hg5 mi
1:35 AM66 °FMild.No wind100%29.97 "Hg7 mi
1:15 AM66 °FMild.No wind94%29.97 "Hg7 mi
12:55 AM64 °FFog.No wind100%29.97 "Hg6 mi
12:35 AM66 °FMild.No wind94%29.96 "Hg8 mi
12:15 AM66 °FMild.No wind94%29.96 "Hg8 mi
11:55 PM
Apr 23
66 °FMild.No wind94%29.97 "Hg10 mi
11:15 PM66 °FMild.No wind94%29.96 "Hg10 mi
10:55 PM68 °FMild.No wind88%29.96 "Hg10 mi
10:35 PM68 °FMild.No wind88%29.95 "Hg10 mi
10:15 PM70 °FMild.No wind83%29.95 "Hg10 mi
9:55 PM70 °FMild.5 mph83%29.94 "Hg10 mi
9:15 PM72 °FMild.No wind73%29.93 "Hg10 mi
8:55 PM72 °FMild.5 mph73%29.92 "Hg10 mi
8:35 PM73 °FMild.6 mph69%29.91 "Hg10 mi
8:15 PM73 °FMild.7 mph69%29.91 "Hg10 mi
7:35 PM77 °FWarm.8 mph61%29.89 "Hg10 mi
7:15 PM79 °FWarm.6 mph58%29.89 "Hg10 mi
6:55 PM81 °FWarm.7 mph54%29.88 "Hg10 mi
6:15 PM82 °FWarm.12 mph51%29.87 "Hg10 mi
5:55 PM82 °FWarm.8 mph51%29.87 "Hg10 mi
5:15 PM82 °FWarm.7 mph48%29.87 "Hg10 mi
4:55 PM84 °FWarm.8 mph45%29.87 "Hg10 mi
4:15 PM82 °FWarm.6 mph48%29.88 "Hg10 mi
3:55 PM82 °FWarm.6 mph48%29.88 "Hg10 mi
3:15 PM82 °FWarm.No wind48%29.90 "Hg10 mi
2:55 PM82 °FWarm.8 mph48%29.91 "Hg10 mi
2:15 PM82 °FWarm.8 mph48%29.92 "Hg10 mi
1:55 PM82 °FWarm.5 mph51%29.92 "Hg10 mi
1:35 PM81 °FWarm.6 mph54%29.93 "Hg10 mi
1:15 PM81 °FWarm.6 mph54%29.93 "Hg10 mi
Weather by CustomWeather, © 2014

See weather overview